Regional Weather Roundup
Issued by NWS

Home | Current Version | Previous Version | Graphics & Text | Print | Product List | Glossary On
Versions: 1 2 3 4 5 6 7 8 9 10 11 12 13 14 15 16 17 18 19 20 21 22 23 24 25 26 27 28 29 30 31 32 33 34 35 36 37 38 39 40 41 42 43 44 45 46 47 48 49 50
000
ASUS43 KOAX 291102
RWRNE

WEATHER ROUNDUP FOR NEBRASKA
NATIONAL WEATHER SERVICE OMAHA NE
600 AM CDT FRI MAY 29 2015

NOTES: SATELLITE DATA IS BEING USED TO AUGMENT CLOUD COVER ABOVE
       12000 FEET.
       "FAIR" INDICATES FEW OR NO CLOUDS BELOW 12,000 FEET WITH NO
       SIGNIFICANT WEATHER AND/OR OBSTRUCTIONS TO VISIBILITY.

  * THESE STATIONS DO NOT REPORT WEATHER SUCH AS RAIN...SNOW OR FOG.

NEZ001>004-019>022-054>056-291200-
NEBRASKA PANHANDLE

CITY           SKY/WX    TMP DP  RH WIND       PRES   REMARKS
SCOTTSBLUFF    CLOUDY    52  49  89 W8        30.08S
ALLIANCE       PTCLDY    46  45  96 W7        30.05R
CHADRON        CLOUDY    56  52  86 NW6       30.06R
KIMBALL          N/A    N/A N/A N/A MISG        N/A
SIDNEY         CLEAR     50  47  89 NW10      30.09R
$$

NEZ057>060-069>072-079>082-291200-
SOUTHWEST NEBRASKA

CITY           SKY/WX    TMP DP  RH WIND       PRES   REMARKS
NORTH PLATTE   PTCLDY    52  49  89 W7        29.99R
IMPERIAL       CLOUDY    56  52  86 W6        30.03R
LEXINGTON      PTCLDY    56  55  94 NW7       29.97R
MCCOOK         CLEAR     55  52  89 NW14      29.99R
$$

NEZ005>010-023>029-035>040-094-291200-
NORTH CENTRAL NEBRASKA

CITY           SKY/WX    TMP DP  RH WIND       PRES   REMARKS
VALENTINE      CLOUDY    57  54  89 NW13      29.95R
AINSWORTH      MOCLDY    57  55  94 W12       29.94R
BROKEN BOW     MOCLDY    58  55  90 W7        29.94S
ORD            CLOUDY    58  55  90 W9        29.90R
$$

NEZ041-046>049-061>064-073>077-083>087-291200-
SOUTH CENTRAL NEBRASKA

CITY           SKY/WX    TMP DP  RH WIND       PRES   REMARKS
GRAND ISLAND   PTCLDY    58  56  93 S8        29.92R
AURORA         PTCLDY    60  60 100 SW7       29.91R
HASTINGS       PTCLDY    58  56  93 CALM      29.93R
HEBRON         MOCLDY    61  57  89 SW5       29.93S
HOLDREGE       PTCLDY    56  53  86 NW6       29.95R
KEARNEY *      MOCLDY    57  52  82 CALM      29.95R
YORK           MOCLDY    59  59 100 SW8       29.92R
$$

NEZ011>018-030>034-042>045-291200-
NORTHEAST NEBRASKA

CITY           SKY/WX    TMP DP  RH WIND       PRES   REMARKS
NORFOLK        CLOUDY    64  59  83 W6        29.86R
ALBION         DRIZZLE   60  57  89 NW5       29.88S
BLAIR          CLOUDY    64  61  91 S12       29.88S
COLUMBUS *     CLOUDY    61  55  82 S7        29.90R
FREMONT        CLOUDY    65  63  93 SE8       29.88R
TEKAMAH        CLOUDY    65  63  93 S12       29.86R
WAYNE          CLOUDY    63  59  88 NW3       29.84F
$$

NEZ050>053-065>068-078-088>093-291200-
SOUTHEAST NEBRASKA

CITY           SKY/WX    TMP DP  RH WIND       PRES   REMARKS
LINCOLN        CLOUDY    64  61  90 SW3       29.90R
OMAHA EPPLEY   CLOUDY    66  63  90 S13       29.89R
BEATRICE       CLOUDY    61  59  93 SW3       29.92R
FALLS CITY     CLOUDY    64  62  93 S10       29.92R
NEBRASKA CITY  LGT RAIN  64  64  99 SW9       29.92R
PLATTSMOUTH    CLOUDY    64  62  93 S9        29.90R
$$

NEZ044-045-051>053-067-291200-
OMAHA AREA

CITY           SKY/WX    TMP DP  RH WIND       PRES   REMARKS
OMAHA EPPLEY   CLOUDY    66  63  90 S13       29.89R
BLAIR          CLOUDY    64  61  91 S12       29.88S
FREMONT        CLOUDY    65  63  93 SE8       29.88R
MILLARD        CLOUDY    65  63  91 S7        29.89R
OFFUTT AFB     CLOUDY    65  63  93 S8        29.89R
PLATTSMOUTH    CLOUDY    64  62  93 S9        29.90R
WAHOO          CLOUDY    64  63  95 S10       29.88S
$$


USA.gov is the U.S. government's official web portal to all federal, state and local government web resources and services.